"Period start","avg(HW err(1)/warn(2) (#))","avg(Visibility (m))","avg(Weather code (#))","avg(Precip intensity (mm/h))","min(HW err(1)/warn(2) (#))","max(HW err(1)/warn(2) (#))","std(HW err(1)/warn(2) (#))","med(HW err(1)/warn(2) (#))","min(Visibility (m))","max(Visibility (m))","std(Visibility (m))","med(Visibility (m))","min(Weather code (#))","max(Weather code (#))","std(Weather code (#))","med(Weather code (#))","min(Precip intensity (mm/h))","max(Precip intensity (mm/h))","std(Precip intensity (mm/h))","med(Precip intensity (mm/h))"
2013-07-14 00:00:00,2,45037,0,0.00,2,2,0,2,38833,50000,4148,44050,0,0,0,0,0.00,0.00,0.00,0.00
2013-07-14 00:10:00,2,42055,0,0.00,2,2,0,2,33771,50000,5782,41621,0,0,0,0,0.00,0.00,0.00,0.00
2013-07-14 00:20:00,2,47732,0,0.00,2,2,0,2,37703,50000,3782,49746,0,0,0,0,0.00,0.00,0.00,0.00
2013-07-14 00:30:00,2,43040,0,0.00,2,2,0,2,26971,50000,8105,47476,0,0,0,0,0.00,0.00,0.00,0.00
2013-07-14 00:40:00,2,44733,0,0.00,2,2,0,2,30823,50000,6516,48791,0,0,0,0,0.00,0.00,0.00,0.00
2013-07-14 00:50:00,2,45360,0,0.00,2,2,0,2,31527,50000,6075,48696,0,0,0,0,0.00,0.00,0.00,0.00
2013-07-14 01:00:00,2,44946,0,0.00,2,2,0,2,32988,50000,5917,47356,0,0,0,0,0.00,0.00,0.00,0.00
2013-07-14 01:10:00,2,47420,0,0.00,2,2,0,2,34070,50000,4779,49902,0,0,0,0,0.00,0.00,0.00,0.00
2013-07-14 01:20:00,2,48899,0,0.00,2,2,0,2,42866,50000,2122,50000,0,0,0,0,0.00,0.00,0.00,0.00
2013-07-14 01:30:00,2,45585,0,0.00,2,2,0,2,37369,50000,4045,45736,0,0,0,0,0.00,0.00,0.00,0.00
2013-07-14 01:40:00,2,40617,0,0.00,2,2,0,2,33564,46744,4203,41201,0,0,0,0,0.00,0.00,0.00,0.00
2013-07-14 01:50:00,2,45604,0,0.00,2,2,0,2,34937,50000,5950,49819,0,0,0,0,0.00,0.00,0.00,0.00
2013-07-14 02:00:00,2,48148,0,0.00,2,2,0,2,42970,50000,2292,49015,0,0,0,0,0.00,0.00,0.00,0.00
2013-07-14 02:10:00,2,45167,0,0.00,2,2,0,2,33084,50000,4919,45960,0,0,0,0,0.00,0.00,0.00,0.00
2013-07-14 02:20:00,2,44515,0,0.00,2,2,0,2,35706,50000,4218,44180,0,0,0,0,0.00,0.00,0.00,0.00
2013-07-14 02:30:00,2,46948,0,0.00,2,2,0,2,35894,50000,4783,49409,0,0,0,0,0.00,0.00,0.00,0.00
2013-07-14 02:40:00,2,46783,0,0.00,2,2,0,2,38811,50000,4330,49188,0,0,0,0,0.00,0.00,0.00,0.00
2013-07-14 02:50:00,2,41179,0,0.00,2,2,0,2,32807,50000,6054,41714,0,0,0,0,0.00,0.00,0.00,0.00
2013-07-14 03:00:00,2,47481,0,0.00,2,2,0,2,41144,50000,3421,50000,0,0,0,0,0.00,0.00,0.00,0.00
2013-07-14 03:10:00,2,49202,0,0.00,2,2,0,2,45555,50000,1462,50000,0,0,0,0,0.00,0.00,0.00,0.00
2013-07-14 03:20:00,2,44651,0,0.00,2,2,0,2,31244,50000,6188,47490,0,0,0,0,0.00,0.00,0.00,0.00
2013-07-14 03:30:00,2,48018,0,0.00,2,2,0,2,39162,50000,3325,50000,0,0,0,0,0.00,0.00,0.00,0.00
2013-07-14 03:40:00,2,39069,0,0.00,0,2,1,2,19039,50000,10147,44966,0,0,0,0,0.00,0.00,0.00,0.00
2013-07-14 03:50:00,2,49240,0,0.00,0,2,1,2,43379,50000,1975,50000,0,0,0,0,0.00,0.00,0.00,0.00
2013-07-14 04:00:00,2,47762,0,0.00,2,2,0,2,37576,50000,4415,50000,0,0,0,0,0.00,0.00,0.00,0.00
2013-07-14 04:10:00,2,48242,0,0.00,2,2,0,2,40752,50000,2956,49864,0,0,0,0,0.00,0.00,0.00,0.00
2013-07-14 04:20:00,2,43603,0,0.00,2,2,0,2,32326,50000,5589,44282,0,0,0,0,0.00,0.00,0.00,0.00
2013-07-14 04:30:00,2,44780,0,0.00,2,2,0,2,37705,50000,4226,44985,0,0,0,0,0.00,0.00,0.00,0.00
2013-07-14 04:40:00,2,49652,0,0.00,0,2,1,2,48589,50000,514,49921,0,0,0,0,0.00,0.00,0.00,0.00
2013-07-14 04:50:00,2,45876,0,0.00,2,2,0,2,33668,50000,6040,49828,0,0,0,0,0.00,0.00,0.00,0.00
2013-07-14 05:00:00,2,45222,0,0.00,2,2,0,2,36824,50000,4641,45890,0,0,0,0,0.00,0.00,0.00,0.00
2013-07-14 05:10:00,2,46912,0,0.00,2,2,0,2,38456,50000,4742,50000,0,0,0,0,0.00,0.00,0.00,0.00
2013-07-14 05:20:00,1,48133,0,0.00,0,2,1,2,41216,50000,3264,50000,0,0,0,0,0.00,0.00,0.00,0.00
2013-07-14 05:30:00,0,47311,0,0.00,0,2,1,0,37680,50000,4001,49622,0,0,0,0,0.00,0.00,0.00,0.00
2013-07-14 05:40:00,1,49816,0,0.00,0,2,1,0,48671,50000,411,50000,0,0,0,0,0.00,0.00,0.00,0.00
2013-07-14 05:50:00,2,48115,0,0.00,2,2,0,2,41722,50000,3131,50000,0,0,0,0,0.00,0.00,0.00,0.00
2013-07-14 06:00:00,2,48367,0,0.00,0,2,1,2,42068,50000,2533,49594,0,0,0,0,0.00,0.00,0.00,0.00
2013-07-14 06:10:00,2,46712,0,0.00,2,2,0,2,42934,50000,2358,46803,0,0,0,0,0.00,0.00,0.00,0.00
2013-07-14 06:20:00,2,49467,0,0.00,2,2,0,2,47284,50000,1032,50000,0,0,0,0,0.00,0.00,0.00,0.00
2013-07-14 06:30:00,2,49310,0,0.00,2,2,0,2,45761,50000,1263,50000,0,0,0,0,0.00,0.00,0.00,0.00
2013-07-14 06:40:00,2,46461,0,0.00,2,2,0,2,30923,50000,6421,50000,0,0,0,0,0.00,0.00,0.00,0.00
2013-07-14 06:50:00,2,47690,0,0.00,2,2,0,2,31017,50000,5622,50000,0,0,0,0,0.00,0.00,0.00,0.00
2013-07-14 07:00:00,2,45937,0,0.00,2,2,0,2,35605,50000,4447,46388,0,0,0,0,0.00,0.00,0.00,0.00
2013-07-14 07:10:00,2,43112,0,0.00,0,2,1,2,36605,50000,3843,42908,0,0,0,0,0.00,0.00,0.00,0.00
2013-07-14 07:20:00,2,49347,0,0.00,2,2,0,2,44732,50000,1584,50000,0,0,0,0,0.00,0.00,0.00,0.00
2013-07-14 07:30:00,2,49132,0,0.00,2,2,0,2,46683,50000,1337,50000,0,0,0,0,0.00,0.00,0.00,0.00
2013-07-14 07:40:00,2,48676,0,0.00,2,2,0,2,42313,50000,2387,50000,0,0,0,0,0.00,0.00,0.00,0.00
2013-07-14 07:50:00,2,48860,0,0.00,2,2,0,2,42942,50000,2290,50000,0,0,0,0,0.00,0.00,0.00,0.00
2013-07-14 08:00:00,2,49045,0,0.00,2,2,0,2,44881,50000,1681,50000,0,0,0,0,0.00,0.00,0.00,0.00
2013-07-14 08:10:00,2,49087,0,0.00,2,2,0,2,45224,50000,1756,50000,0,0,0,0,0.00,0.00,0.00,0.00
2013-07-14 08:20:00,2,46058,0,0.00,2,2,0,2,41529,50000,3231,46794,0,0,0,0,0.00,0.00,0.00,0.00
2013-07-14 08:30:00,2,49946,0,0.00,2,2,0,2,49458,50000,163,50000,0,0,0,0,0.00,0.00,0.00,0.00
2013-07-14 08:40:00,2,46109,0,0.00,2,2,0,2,42017,50000,3051,46034,0,0,0,0,0.00,0.00,0.00,0.00
2013-07-14 08:50:00,2,45041,0,0.00,2,2,0,2,38743,49958,3640,45481,0,0,0,0,0.00,0.00,0.00,0.00
2013-07-14 09:00:00,2,47332,0,0.00,2,2,0,2,39936,50000,3055,47930,0,0,0,0,0.00,0.00,0.00,0.00
2013-07-14 09:10:00,2,49668,0,0.00,2,2,0,2,47174,50000,844,50000,0,0,0,0,0.00,0.00,0.00,0.00
2013-07-14 09:20:00,2,45925,0,0.00,2,2,0,2,41619,50000,2631,45758,0,0,0,0,0.00,0.00,0.00,0.00
2013-07-14 09:30:00,2,47473,0,0.00,2,2,0,2,44672,50000,1894,47155,0,0,0,0,0.00,0.00,0.00,0.00
2013-07-14 09:40:00,2,42366,0,0.00,2,2,0,2,19743,48523,7732,44108,0,0,0,0,0.00,0.00,0.00,0.00
2013-07-14 09:50:00,2,42241,0,0.00,2,2,0,2,26050,50000,7251,42316,0,0,0,0,0.00,0.00,0.00,0.00
2013-07-14 10:00:00,2,49233,0,0.00,2,2,0,2,46413,50000,1267,50000,0,0,0,0,0.00,0.00,0.00,0.00
2013-07-14 10:10:00,2,46952,0,0.00,2,2,0,2,34040,50000,5549,50000,0,0,0,0,0.00,0.00,0.00,0.00
2013-07-14 10:20:00,2,48701,0,0.00,2,2,0,2,45017,50000,1754,49506,0,0,0,0,0.00,0.00,0.00,0.00
2013-07-14 10:30:00,2,46176,0,0.00,2,2,0,2,42679,50000,2153,45762,0,0,0,0,0.00,0.00,0.00,0.00
2013-07-14 10:40:00,2,48812,0,0.00,2,2,0,2,44495,50000,1796,50000,0,0,0,0,0.00,0.00,0.00,0.00
2013-07-14 10:50:00,2,50000,0,0.00,2,2,0,2,50000,50000,0,50000,0,0,0,0,0.00,0.00,0.00,0.00
2013-07-14 11:00:00,2,49229,0,0.00,2,2,0,2,47552,50000,932,49810,0,0,0,0,0.00,0.00,0.00,0.00
2013-07-14 11:10:00,2,49245,0,0.00,2,2,0,2,43210,50000,2024,50000,0,0,0,0,0.00,0.00,0.00,0.00
2013-07-14 11:20:00,2,49372,0,0.00,2,2,0,2,45623,50000,1372,50000,0,0,0,0,0.00,0.00,0.00,0.00
2013-07-14 11:30:00,2,49714,0,0.00,2,2,0,2,47137,50000,859,50000,0,0,0,0,0.00,0.00,0.00,0.00
2013-07-14 11:40:00,2,49695,0,0.00,2,2,0,2,48215,50000,621,50000,0,0,0,0,0.00,0.00,0.00,0.00
2013-07-14 11:50:00,2,46929,0,0.00,2,2,0,2,37571,50000,4331,50000,0,0,0,0,0.00,0.00,0.00,0.00
2013-07-14 12:00:00,2,50000,0,0.00,2,2,0,2,50000,50000,0,50000,0,0,0,0,0.00,0.00,0.00,0.00
2013-07-14 12:10:00,2,49838,0,0.00,2,2,0,2,48829,50000,362,50000,0,0,0,0,0.00,0.00,0.00,0.00
2013-07-14 12:20:00,2,50000,0,0.00,2,2,0,2,50000,50000,0,50000,0,0,0,0,0.00,0.00,0.00,0.00
2013-07-14 12:30:00,2,49984,0,0.00,2,2,0,2,49845,50000,46,50000,0,0,0,0,0.00,0.00,0.00,0.00
2013-07-14 12:40:00,2,49981,0,0.00,2,2,0,2,49810,50000,57,50000,0,0,0,0,0.00,0.00,0.00,0.00
2013-07-14 12:50:00,2,49700,0,0.00,2,2,0,2,48143,50000,551,50000,0,0,0,0,0.00,0.00,0.00,0.00
2013-07-14 13:00:00,2,50000,0,0.00,2,2,0,2,50000,50000,0,50000,0,0,0,0,0.00,0.00,0.00,0.00
2013-07-14 13:10:00,2,49842,0,0.00,2,2,0,2,48674,50000,397,50000,0,0,0,0,0.00,0.00,0.00,0.00
2013-07-14 13:20:00,2,50000,0,0.00,2,2,0,2,50000,50000,0,50000,0,0,0,0,0.00,0.00,0.00,0.00
2013-07-14 13:30:00,2,50000,0,0.00,2,2,0,2,50000,50000,0,50000,0,0,0,0,0.00,0.00,0.00,0.00
2013-07-14 13:40:00,2,50000,0,0.00,2,2,0,2,50000,50000,0,50000,0,0,0,0,0.00,0.00,0.00,0.00
2013-07-14 13:50:00,2,49525,0,0.00,2,2,0,2,45252,50000,1424,50000,0,0,0,0,0.00,0.00,0.00,0.00
2013-07-14 14:00:00,2,49968,0,0.00,2,2,0,2,49684,50000,95,50000,0,0,0,0,0.00,0.00,0.00,0.00
2013-07-14 14:10:00,2,50000,0,0.00,2,2,0,2,50000,50000,0,50000,0,0,0,0,0.00,0.00,0.00,0.00
2013-07-14 14:20:00,2,50000,0,0.00,2,2,0,2,50000,50000,0,50000,0,0,0,0,0.00,0.00,0.00,0.00
2013-07-14 14:30:00,2,50000,0,0.00,2,2,0,2,50000,50000,0,50000,0,0,0,0,0.00,0.00,0.00,0.00
2013-07-14 14:40:00,2,50000,0,0.00,2,2,0,2,50000,50000,0,50000,0,0,0,0,0.00,0.00,0.00,0.00
2013-07-14 14:50:00,2,50000,0,0.00,2,2,0,2,50000,50000,0,50000,0,0,0,0,0.00,0.00,0.00,0.00
2013-07-14 15:00:00,2,50000,0,0.00,2,2,0,2,50000,50000,0,50000,0,0,0,0,0.00,0.00,0.00,0.00
2013-07-14 15:10:00,2,48398,0,0.00,2,2,0,2,38166,50000,3632,50000,0,0,0,0,0.00,0.00,0.00,0.00
2013-07-14 15:20:00,2,50000,0,0.00,2,2,0,2,50000,50000,0,50000,0,0,0,0,0.00,0.00,0.00,0.00
2013-07-14 15:30:00,2,50000,0,0.00,2,2,0,2,50000,50000,0,50000,0,0,0,0,0.00,0.00,0.00,0.00
2013-07-14 15:40:00,2,49880,0,0.00,2,2,0,2,49015,50000,295,50000,0,0,0,0,0.00,0.00,0.00,0.00
2013-07-14 15:50:00,2,49991,0,0.00,2,2,0,2,49914,50000,26,50000,0,0,0,0,0.00,0.00,0.00,0.00
2013-07-14 16:00:00,2,49916,0,0.00,2,2,0,2,49515,50000,170,50000,0,0,0,0,0.00,0.00,0.00,0.00
2013-07-14 16:10:00,2,50000,0,0.00,2,2,0,2,50000,50000,0,50000,0,0,0,0,0.00,0.00,0.00,0.00
2013-07-14 16:20:00,2,50000,0,0.00,2,2,0,2,50000,50000,0,50000,0,0,0,0,0.00,0.00,0.00,0.00
2013-07-14 16:30:00,2,49485,0,0.00,2,2,0,2,47310,50000,1020,50000,0,0,0,0,0.00,0.00,0.00,0.00
2013-07-14 16:40:00,2,11283,2,0.00,2,2,0,2,2346,32245,8774,8963,0,10,4,0,0.00,0.00,0.00,0.00
2013-07-14 16:50:00,2,1138,12,0.00,2,2,0,2,613,1867,428,1115,10,30,6,10,0.00,0.00,0.00,0.00
2013-07-14 17:00:00,2,17990,28,0.00,2,2,0,2,1151,50000,19767,4563,20,30,4,30,0.00,0.00,0.00,0.00
2013-07-14 17:10:00,2,38483,20,0.00,2,2,0,2,13633,50000,14639,50000,20,20,0,20,0.00,0.00,0.00,0.00
2013-07-14 17:20:00,2,42123,20,0.00,2,2,0,2,15424,50000,10936,46842,20,20,0,20,0.00,0.00,0.00,0.00
2013-07-14 17:30:00,2,45172,20,0.00,2,2,0,2,23423,50000,9167,50000,20,20,0,20,0.00,0.00,0.00,0.00
2013-07-14 17:40:00,2,14489,20,0.00,2,2,0,2,4865,29909,8343,12422,20,20,0,20,0.00,0.00,0.00,0.00
2013-07-14 17:50:00,2,1317,23,0.00,2,2,0,2,261,3430,1173,696,20,34,6,20,0.00,0.00,0.00,0.00
2013-07-14 18:00:00,2,210,54,0.08,2,2,0,2,137,308,51,196,34,77,19,41,0.00,0.15,0.05,0.10
2013-07-14 18:10:00,2,133,77,0.27,2,2,0,2,116,170,15,130,77,77,0,77,0.20,0.35,0.05,0.28
2013-07-14 18:20:00,2,139,77,0.34,2,2,0,2,116,151,12,144,73,77,1,77,0.25,0.50,0.08,0.33
2013-07-14 18:30:00,2,140,73,0.43,2,2,0,2,125,167,14,134,73,73,0,73,0.25,0.85,0.16,0.42
2013-07-14 18:40:00,2,192,72,0.26,2,2,0,2,141,264,35,186,71,73,1,73,0.20,0.35,0.05,0.25
2013-07-14 18:50:00,2,297,71,0.10,2,2,0,2,221,381,55,282,71,73,1,71,0.05,0.15,0.04,0.10
2013-07-14 19:00:00,2,309,74,0.08,2,2,0,2,253,396,47,288,71,77,3,74,0.00,0.15,0.05,0.10
2013-07-14 19:10:00,2,366,77,0.04,2,2,0,2,312,418,30,363,77,77,0,77,0.00,0.10,0.03,0.05
2013-07-14 19:20:00,2,369,77,0.03,2,2,0,2,332,418,25,370,77,77,0,77,0.00,0.05,0.03,0.03
2013-07-14 19:30:00,2,482,48,0.01,2,2,0,2,363,556,54,482,41,77,14,41,0.00,0.05,0.02,0.00
2013-07-14 19:40:00,2,598,34,0.00,2,2,0,2,524,733,65,600,32,41,4,32,0.00,0.00,0.00,0.00
2013-07-14 19:50:00,2,699,32,0.00,2,2,0,2,551,968,110,670,32,32,0,32,0.00,0.00,0.00,0.00
2013-07-14 20:00:00,2,890,32,0.00,2,2,0,2,728,1304,175,846,32,32,0,32,0.00,0.00,0.00,0.00
2013-07-14 20:10:00,2,954,32,0.00,2,2,0,2,739,1165,147,960,32,32,0,32,0.00,0.00,0.00,0.00
2013-07-14 20:20:00,2,784,31,0.00,2,2,0,2,657,948,81,782,30,32,1,31,0.00,0.00,0.00,0.00
2013-07-14 20:30:00,2,792,32,0.00,2,2,0,2,540,1032,142,804,32,32,0,32,0.00,0.00,0.00,0.00
2013-07-14 20:40:00,2,1298,29,0.00,2,2,0,2,991,1781,238,1242,20,33,4,30,0.00,0.00,0.00,0.00
2013-07-14 20:50:00,2,1192,20,0.00,2,2,0,2,893,1567,237,1190,20,20,0,20,0.00,0.00,0.00,0.00
2013-07-14 21:00:00,2,1824,20,0.00,2,2,0,2,1164,2828,536,1666,20,20,0,20,0.00,0.00,0.00,0.00
2013-07-14 21:10:00,2,1482,20,0.00,2,2,0,2,903,2224,433,1452,20,20,0,20,0.00,0.00,0.00,0.00
2013-07-14 21:20:00,2,1281,20,0.00,2,2,0,2,1064,1645,162,1276,20,20,0,20,0.00,0.00,0.00,0.00
2013-07-14 21:30:00,2,3641,20,0.00,2,2,0,2,1794,6271,1564,3644,20,20,0,20,0.00,0.00,0.00,0.00
2013-07-14 21:40:00,2,13969,19,0.00,2,2,0,2,5909,38743,9492,9704,10,20,3,20,0.00,0.00,0.00,0.00
2013-07-14 21:50:00,2,30376,2,0.00,2,2,0,2,15930,50000,9058,27632,0,10,4,0,0.00,0.00,0.00,0.00
2013-07-14 22:00:00,2,28569,0,0.00,2,2,0,2,14011,43859,9629,30310,0,0,0,0,0.00,0.00,0.00,0.00
2013-07-14 22:10:00,2,41179,0,0.00,2,2,0,2,26227,50000,7319,41679,0,0,0,0,0.00,0.00,0.00,0.00
2013-07-14 22:20:00,2,36519,0,0.00,2,2,0,2,19393,48518,9557,38058,0,0,0,0,0.00,0.00,0.00,0.00
2013-07-14 22:30:00,2,50000,0,0.00,2,2,0,2,50000,50000,0,50000,0,0,0,0,0.00,0.00,0.00,0.00
2013-07-14 22:40:00,2,48070,0,0.00,2,2,0,2,35642,50000,4239,49958,0,0,0,0,0.00,0.00,0.00,0.00
2013-07-14 22:50:00,2,49090,0,0.00,2,2,0,2,43293,50000,2005,50000,0,0,0,0,0.00,0.00,0.00,0.00
2013-07-14 23:00:00,2,34166,0,0.00,2,2,0,2,2948,50000,18439,43920,0,0,0,0,0.00,0.00,0.00,0.00
2013-07-14 23:10:00,2,8112,9,0.00,2,2,0,2,2191,16401,4756,6970,0,10,3,10,0.00,0.00,0.00,0.00
2013-07-14 23:20:00,2,5826,10,0.00,2,2,0,2,1216,22071,7002,1774,10,10,0,10,0.00,0.00,0.00,0.00
2013-07-14 23:30:00,2,10665,10,0.00,2,2,0,2,1300,25914,8460,8222,10,10,0,10,0.00,0.00,0.00,0.00
2013-07-14 23:40:00,2,1207,10,0.00,2,2,0,2,760,3081,657,920,10,10,0,10,0.00,0.00,0.00,0.00
2013-07-14 23:50:00,2,1185,33,0.00,2,2,0,2,684,3575,823,920,30,34,2,34,0.00,0.00,0.00,0.00
